Edinburg, TX

5:55 PM CST on February 23, 2017 (GMT -0600)
Edinburg

Weather History for KEBG - February, 2013

Change the Weather History Date:

Tuesday, February 12, 2013

  Actual Average (KMFE) Record (KMFE)
Temperature  
Mean Temperature 71 °F -  
Max Temperature 82 °F 73 °F 92 °F (1995)
Min Temperature 60 °F 53 °F 31 °F (1963)
Cooling Degree Days 6    
Growing Degree Days 21 (Base 50)    
Moisture  
Dew Point 57 °F    
Average Humidity 71    
Maximum Humidity 91    
Minimum Humidity 41    
Precipitation  
Precipitation 0.00 in - - ()
Sea Level Pressure  
Sea Level Pressure 29.87 in    
Wind  
Wind Speed 9 mph (North)    
Max Wind Speed 16 mph    
Max Gust Speed 20 mph    
Visibility 5 miles    
Events      
Averages and records for this station are not official NWS values.
T = Trace of Precipitation, MM = Missing Value Source: NWS Daily Summary

Daily Weather History Graph

Daily Weather History Graph

Search for Another Location

Airport or City:

Trip Planner

Search our weather history database for the weather conditions in past years. The results will help you decide how hot, cold, wet, or windy it might be!

Date:

Astronomy

Feb. 12, 2013 Rise Set
Actual Time 7:10 AM CST 6:23 PM CST
Civil Twilight 6:46 AM CST 6:47 PM CST
Nautical Twilight 6:19 AM CST 7:14 PM CST
Astronomical Twilight 5:52 AM CST 7:41 PM CST
Moon 8:28 AM CST (2/12) 9:02 PM CST (2/12)
Length of Visible Light 12h 00m
Length of Day
11h 13m
Waxing Crescent, 7% of the Moon is Illuminated
Feb 12
Waxing Crescent
Feb 17
First Quarter
Feb 25
Full
Mar 4
Last Quarter
Mar 11
New

Hourly Weather History & Observations

Time (CST) Temp. Heat Index Dew Point Humidity Pressure Visibility Wind Dir Wind Speed Gust Speed Precip Events Conditions
12:15 AM 64.9 °F - 61.3 °F 88% 29.88 in 7.0 mi NE 8.1 mph - N/A   Overcast
12:35 AM 64.8 °F - 61.0 °F 88% 29.88 in 7.0 mi NNE 10.4 mph - N/A   Overcast
12:55 AM 64.4 °F - 60.8 °F 88% 29.87 in 4.0 mi NNE 11.5 mph - N/A   Overcast
1:15 AM 64.4 °F - 60.8 °F 88% 29.88 in 3.0 mi North 9.2 mph - N/A   Overcast
1:35 AM 63.9 °F - 60.8 °F 90% 29.87 in 3.0 mi NNE 10.4 mph - N/A   Overcast
1:55 AM 63.9 °F - 60.8 °F 90% 29.86 in 3.0 mi NNE 9.2 mph - N/A   Overcast
2:15 AM 63.5 °F - 60.8 °F 91% 29.87 in 3.0 mi NNE 8.1 mph - N/A   Overcast
2:55 AM 63.1 °F - 60.3 °F 90% 29.86 in 2.0 mi North 6.9 mph - N/A   Overcast
3:15 AM 62.6 °F - 59.9 °F 91% 29.86 in 2.0 mi North 10.4 mph - N/A   Overcast
3:35 AM 62.2 °F - 59.5 °F 91% 29.85 in 2.0 mi North 9.2 mph - N/A   Overcast
4:15 AM 61.5 °F - 58.8 °F 91% 29.84 in 2.0 mi North 8.1 mph - N/A   Overcast
4:35 AM 60.8 °F - 58.3 °F 91% 29.82 in 2.5 mi North 6.9 mph - N/A   Overcast
4:55 AM 60.8 °F - 58.3 °F 91% 29.83 in 3.0 mi North 10.4 mph - N/A   Overcast
5:15 AM 60.8 °F - 58.3 °F 91% 29.82 in 4.0 mi North 9.2 mph - N/A   Overcast
5:35 AM 60.8 °F - 58.1 °F 91% 29.83 in 4.0 mi NNW 8.1 mph - N/A   Overcast
5:55 AM 60.8 °F - 58.1 °F 91% 29.83 in 2.5 mi North 9.2 mph - N/A   Overcast
6:15 AM 60.4 °F - 57.7 °F 91% 29.84 in 2.5 mi North 10.4 mph - N/A   Overcast
6:35 AM 60.3 °F - 57.6 °F 91% 29.84 in 2.0 mi North 11.5 mph - N/A   Overcast
6:55 AM 60.1 °F - 57.4 °F 91% 29.86 in 2.0 mi NNW 9.2 mph - N/A   Overcast
7:15 AM 60.3 °F - 57.7 °F 91% 29.87 in 2.5 mi NNW 9.2 mph - N/A   Overcast
7:35 AM 60.3 °F - 57.7 °F 91% 29.88 in 1.2 mi NNW 9.2 mph - N/A   Overcast
7:55 AM 60.3 °F - 57.7 °F 91% 29.88 in 1.5 mi North 5.8 mph - N/A   Overcast
8:15 AM 60.3 °F - 57.7 °F 91% 29.89 in 2.0 mi North 8.1 mph - N/A   Overcast
8:35 AM 60.3 °F - 57.7 °F 91% 29.89 in 2.0 mi NNW 8.1 mph - N/A   Overcast
8:55 AM 60.8 °F - 58.1 °F 91% 29.89 in 2.5 mi NNW 6.9 mph - N/A   Overcast
9:15 AM 61.7 °F - 58.8 °F 90% 29.89 in 5.0 mi NNW 5.8 mph - N/A   Overcast
9:35 AM 63.0 °F - 59.2 °F 87% 29.89 in 5.0 mi NW 5.8 mph - N/A   Overcast
9:55 AM 64.4 °F - 58.6 °F 82% 29.90 in 5.0 mi NW 5.8 mph - N/A   Haze
10:15 AM 66.2 °F - 59.2 °F 78% 29.90 in 5.0 mi WNW 3.5 mph - N/A   Haze
10:35 AM 66.7 °F - 59.2 °F 77% 29.90 in 5.0 mi NNW 5.8 mph - N/A   Haze
10:55 AM 68.0 °F - 59.0 °F 73% 29.90 in 7.0 mi NW 5.8 mph - N/A   Overcast
11:15 AM 68.9 °F - 59.0 °F 71% 29.90 in 7.0 mi NNW 6.9 mph - N/A   Overcast
11:35 AM 69.6 °F - 59.0 °F 69% 29.90 in 5.0 mi NNW 9.2 mph - N/A   Haze
11:55 AM 70.5 °F - 59.2 °F 67% 29.89 in 7.0 mi NNW 8.1 mph - N/A   Overcast
12:15 PM 71.2 °F - 59.2 °F 66% 29.88 in 7.0 mi NNW 6.9 mph - N/A   Overcast
12:35 PM 72.1 °F - 59.5 °F 64% 29.87 in 5.0 mi NNW 4.6 mph - N/A   Haze
12:55 PM 73.0 °F - 59.5 °F 62% 29.87 in 7.0 mi NNW 5.8 mph - N/A   Overcast
1:15 PM 74.3 °F - 59.9 °F 61% 29.85 in 7.0 mi NNW 8.1 mph - N/A   Overcast
1:35 PM 75.2 °F - 60.3 °F 60% 29.85 in 7.0 mi NNW 11.5 mph - N/A   Overcast
1:55 PM 75.7 °F - 61.3 °F 61% 29.83 in 5.0 mi NNW 9.2 mph - N/A   Haze
2:15 PM 76.1 °F - 61.7 °F 61% 29.82 in 5.0 mi NNW 10.4 mph - N/A   Haze
2:35 PM 76.8 °F - 62.1 °F 60% 29.81 in 7.0 mi NNW 6.9 mph - N/A   Overcast
2:55 PM 78.3 °F - 62.2 °F 58% 29.81 in 7.0 mi WNW 6.9 mph - N/A   Scattered Clouds
3:15 PM 78.4 °F - 62.1 °F 57% 29.81 in 7.0 mi NNW 6.9 mph - N/A   Scattered Clouds
3:35 PM 79.9 °F - 61.3 °F 53% 29.81 in 7.0 mi North 6.9 mph - N/A   Mostly Cloudy
3:55 PM 82.0 °F 82.5 °F 60.8 °F 48% 29.80 in 7.0 mi North 10.4 mph - N/A   Mostly Cloudy
4:15 PM 81.1 °F 81.8 °F 60.1 °F 49% 29.79 in 7.0 mi North 16.1 mph - N/A   Scattered Clouds
4:35 PM 79.2 °F - 59.9 °F 52% 29.79 in 7.0 mi NNE 11.5 mph - N/A   Clear
4:55 PM 80.8 °F 81.3 °F 59.4 °F 48% 29.80 in 7.0 mi North 12.7 mph 19.6 mph N/A   Clear
5:15 PM 80.1 °F 80.7 °F 58.8 °F 48% 29.81 in 7.0 mi North 16.1 mph - N/A   Clear
5:35 PM 78.4 °F - 56.7 °F 47% 29.81 in 5.0 mi North 13.8 mph 18.4 mph N/A   Haze
5:55 PM 77.0 °F - 53.6 °F 44% 29.82 in 7.0 mi North 12.7 mph - N/A   Clear
6:15 PM 75.6 °F - 50.4 °F 41% 29.83 in 7.0 mi North 12.7 mph - N/A   Clear
6:35 PM 73.9 °F - 51.1 °F 45% 29.83 in 7.0 mi North 9.2 mph - N/A   Clear
6:55 PM 72.5 °F - 50.5 °F 46% 29.84 in 10.0 mi North 9.2 mph - N/A   Clear
7:15 PM 71.8 °F - 51.1 °F 48% 29.87 in 7.0 mi North 8.1 mph - N/A   Clear
7:35 PM 70.7 °F - 51.1 °F 50% 29.89 in 7.0 mi North 6.9 mph - N/A   Clear
8:15 PM 66.6 °F - 50.9 °F 57% 29.91 in 7.0 mi North 5.8 mph - N/A   Clear
8:35 PM 66.6 °F - 50.9 °F 57% 29.92 in 7.0 mi NNE 3.5 mph - N/A   Clear
8:55 PM 66.2 °F - 50.9 °F 58% 29.92 in 7.0 mi Calm Calm - N/A   Clear
9:15 PM 64.2 °F - 50.5 °F 61% 29.96 in 7.0 mi NNW 6.9 mph - N/A   Clear
9:35 PM 64.6 °F - 51.1 °F 62% 29.95 in 7.0 mi North 5.8 mph - N/A   Clear
9:55 PM 64.4 °F - 51.1 °F 62% 29.94 in 7.0 mi North 10.4 mph - N/A   Clear
10:15 PM 66.7 °F - 51.8 °F 59% 29.94 in 7.0 mi North 11.5 mph - N/A   Clear
10:35 PM 66.7 °F - 51.8 °F 59% 29.92 in 7.0 mi North 10.4 mph - N/A   Clear
10:55 PM 67.8 °F - 51.8 °F 56% 29.94 in 7.0 mi NNE 8.1 mph - N/A   Clear
11:15 PM 68.0 °F - 51.8 °F 56% 29.97 in 10.0 mi North 6.9 mph - N/A   Mostly Cloudy
11:35 PM 68.0 °F - 51.8 °F 56% 29.96 in 7.0 mi NE 3.5 mph - N/A   Scattered Clouds
11:55 PM 67.5 °F - 51.4 °F 56% 29.97 in 7.0 mi NNE 3.5 mph - N/A   Clear